Regional Weather Roundup
Issued by NWS Sioux Falls, SD

Home | Current Version | Previous Version | Graphics & Text | Print | Product List | Glossary Off
Versions: 1 2 3 4 5 6 7 8 9 10 11 12 13 14 15 16 17 18 19 20 21 22 23 24 25 26 27 28 29 30 31 32 33 34 35 36 37 38 39 40 41 42 43 44 45 46 47 48 49 50

000
ASUS43 KFSD 301302
RWRFSD

WEATHER ROUNDUP FOR SE SOUTH DAKOTA/SW MINNESOTA/NW IOWA
NATIONAL WEATHER SERVICE SIOUX FALLS SD
700 AM CST FRI JAN 30 2015

NOTE: "FAIR" INDICATES FEW OR NO CLOUDS BELOW 12,000 FEET WITH NO
SIGNIFICANT WEATHER AND OR OBSTRUCTIONS TO VISIBILITY.


SDZ038>040-050-052>070-301400-
SOUTHEAST SOUTH DAKOTA

CITY           SKY/WX    TMP DP  RH WIND       PRES   REMARKS
CHAMBERLAIN    NOT AVBL
HURON          CLEAR     18  15  88 SE9       30.40F WCI   7
MADISON        FAIR      16  16 100 S6        30.43F WCI   7
MITCHELL       CLEAR     19  17  92 SE9       30.44F WCI   8
SIOUX FALLS    PTCLDY    19  15  84 S7        30.46S WCI  10
WINNER         FAIR      27  20  75 S16       30.31F WCI  15
YANKTON        CLEAR     16  12  86 SE6       30.48S WCI   7
$$

MNZ071-072-080-081-089-090-097-098-301400-
SOUTHWEST MINNESOTA

CITY           SKY/WX    TMP DP  RH WIND       PRES   REMARKS
FAIRMONT       CLEAR     12   7  79 SW3       30.49S
JACKSON        CLEAR     12  10  92 CALM      30.48F
LUVERNE        CLOUDY    21  18  86 S8        30.48S WCI  12
MARSHALL       CLOUDY    16  10  79 SW10      30.48S WCI   3
MONTEVIDEO     MOCLDY    10   9  92 S5        30.49F WCI   2
PIPESTONE      CLOUDY    18  16  93 SW8       30.44R WCI   7
REDWOOD FALLS  CLEAR     11   7  84 S6        30.50S WCI   1
TRACY          CLOUDY    18  15  87 SW9       30.47S WCI   7
WINDOM         CLEAR     10   9  92 CALM      30.48F
WORTHINGTON    CLOUDY    16  10  79 S5        30.47S WCI   9
$$

IAZ001>003-012>014-020>022-031-032-NEZ013-014-SDZ071-301400-
NORTHWEST IOWA

CITY           SKY/WX    TMP DP  RH WIND       PRES   REMARKS
CHEROKEE       CLEAR     14  13  95 SE3       30.50F
DENISON        PTCLDY    16  14  93 CALM      30.49S
ESTHERVILLE    FAIR      12   9  87 SW3       30.49F
SIOUX CITY     PTCLDY    18  15  88 S7        30.51S WCI   9
SPENCER        FAIR      14   9  80 S5        30.50R WCI   6
$$

ABBREVIATIONS USED IN REMARKS
   TC - TEMPERATURE IN CELSIUS
  WCI - WIND CHILL INDEX
   HX - HEAT INDEX
  VSB - VISIBILITY



USA.gov is the U.S. government's official web portal to all federal, state and local government web resources and services.